Location: *
(46.1006°N, 1.8394°E)
Time: 05:40:50
(UTC+00:00)

CZ-4C R/B - Pass Details

Date: 20 September 2019
Orbit: 653 x 1349 km, 63.4° (Epoch: 21 October)

Event Time Altitude Azimuth Distance (km) Brightness Sun altitude
Rises 23:30:15 0° 320° (NW) 3,809 6.2 -42.9°
Reaches altitude 10° 23:32:43 10° 321° (NW) 2,946 5.5 -42.9°
Enters shadow 23:35:47 30° 322° (NW) 1,953 4.3 -42.9°
